Other Public Products
Issued by NWS Grand Forks, ND

Home | Current Version | Previous Version | Graphics & Text | Print | Product List | Glossary On
Versions: 1 2 3 4 5 6 7 8 9 10 11 12 13 14 15 16 17 18 19 20 21 22 23 24 25 26 27 28 29 30 31 32 33 34 35 36 37 38 39 40 41 42 43 44 45 46 47 48 49 50
000
FPUS83 KFGF 221631
OPUFGF
PRAIRIE TO PINES WEATHER ROUNDUP
NATIONAL WEATHER SERVICE EASTERN NORTH DAKOTA/GRAND FORKS ND
1100 AM CDT MON SEP 22 2014

 **SATELLITE DATA USED TO AUGMENT SKY COVER AT AUTOMATED STATIONS**
 *****  WEATHER ACROSS EASTERN NORTH DAKOTA  *****

CITY           SKY/WX    TMP DP  RH WIND       PRES   REMARKS
GRAND FORKS    SUNNY     69  51  52 SW7       30.13S
GRAND FORKS AF SUNNY     70  50  49 SW9       30.13F
GRAND CITY NWS NOT AVBL
BUXTON           N/A     68  53  58 SW6         N/A
DEVILS LAKE    SUNNY     64  48  55 SW9       30.10F
FARGO          SUNNY     63  50  62 S10       30.17F
WAHPETON ARPT  SUNNY     66  48  52 SW7       30.19F
$$

 *****  WEATHER ACROSS CENTRAL AND WESTERN NORTH DAKOTA  *****

CITY           SKY/WX    TMP DP  RH WIND       PRES   REMARKS
JAMESTOWN      SUNNY     65  51  60 S7        30.14F
BISMARCK       SUNNY     67  48  50 SE13      30.10F
MINOT          SUNNY     70  43  37 S12       30.06F
MINOT AFB      SUNNY     69  45  42 S13       30.05F
GARRISON         N/A     63  46  54 S9        30.08F
WILLISTON      SUNNY     64  41  42 SE7       30.01F
DICKINSON      SUNNY     63  44  50 S13       30.03F
HETTINGER      SUNNY     62  43  49 SE9       30.06F
$$

 *****  OTHER OBSERVATIONS NORTHEAST NORTH DAKOTA  *****

CITY           SKY/WX    TMP DP  RH WIND       PRES   REMARKS
WALHALLA         N/A     70  48  46 W7        30.09S
LANGDON        FAIR      68  46  45 W12       30.11F
CAVALIER       FAIR      70  48  46 W9        30.09F
GRAFTON        FAIR      68  50  52 W9        30.11S
CANDO          FAIR      68  46  45 SW8       30.11F
FORT TOTTEN    NOT AVBL
ROLLA          FAIR      66  41  39 SW13      30.11S
RUGBY          FAIR      66  46  48 SW10      30.09F
 ***** THE ABOVE OBSERVATIONS ARE NON NWS ARE NOT QUALITY
        CONTROLLED AND MAY MIS-REPORT RAIN FOR SNOW...
$$

 *****  OTHER OBSERVATIONS SOUTHEAST NORTH DAKOTA *****

CITY           SKY/WX    TMP DP  RH WIND       PRES   REMARKS
COOPERSTOWN    NOT AVBL
VALLEY CITY    FAIR      66  50  55 SW12      30.16F
OAKES            N/A     63  50  63 S10       30.18F
GWINNER        SUNNY     64  48  55 SW13      30.19F
SHEYENNE NWR     N/A     64  50  59 SW8       29.95
BUFFALO          N/A     67  43  41 SW9         N/A
WYNDMERE         N/A     66  52  59 W8          N/A
 ***** THE ABOVE OBSERVATIONS ARE NON NWS ARE NOT QUALITY
       CONTROLLED AND MAY MIS-REPORT RAIN FOR SNOW...
$$

  *****  WEATHER ACROSS NORTHERN MINNESOTA  *****

CITY           SKY/WX    TMP DP  RH WIND       PRES   REMARKS
FLAG ISLAND    SUNNY     63  48  59 SW10      30.06F
WARROAD        SUNNY     64  54  68 SW10      30.11S
ROSEAU         SUNNY     66  52  59 W6        30.11S
HALLOCK        SUNNY     66  54  63 S7        30.10F
THF RVR FALLS  SUNNY     63  50  63 SW7       30.15S
HALSTAD          N/A     65  46  51 SW7         N/A
FOSSTON        SUNNY     64  52  63 S9        30.17F
BAUDETTE       SUNNY     64  50  60 SW9       30.11F
WASKISH        SUNNY     63  54  72 CALM      30.15F
CROOKSTON      SUNNY     61  52  72 SW6       30.15F
$$
  *****  WEATHER ACROSS CENTRAL AND WEST MINNESOTA  *****

CITY           SKY/WX    TMP DP  RH WIND       PRES   REMARKS
BEMIDJI        SUNNY     64  50  59 W9        30.17F
PARK RAPIDS    SUNNY     64  49  57 W10       30.20S
WADENA         SUNNY     64  50  59 W7        30.21S
DETROIT LAKES  SUNNY     63  50  63 SW7       30.20F
MOORHEAD       SUNNY     66  52  59 SW9       30.18F
FERGUS FALLS   SUNNY     64  46  52 SW6       30.21F
ELBOW LAKE     FAIR      64  51  64 SW7       30.21F
MORRIS MN      SUNNY     66  54  63 SW7       30.21F
STAPLES        SUNNY     64  50  59 W5        30.21F
WHEATON        SUNNY     66  50  55 SW8       30.22F
$$
  *****  WEATHER ELSEWHERE ACROSS MINNESOTA  *****

CITY           SKY/WX    TMP DP  RH WIND       PRES   REMARKS
DULUTH         SUNNY     63  49  60 W13G24    30.19F
INTRNTL FALLS  SUNNY     61  51  70 W9        30.12F
ELY            SUNNY     63  48  59 W8        30.14F
CLOQUET        SUNNY     63  48  59 W12       30.20S
BRAINERD       SUNNY     61  50  67 W7        30.23F
HIBBING        SUNNY     63  50  62 W8        30.18F
ALEXANDRIA     SUNNY     62  51  67 SW9       30.24F
SAINT CLOUD    SUNNY     66  52  60 SW8       30.24F
MINNEAPOLIS    SUNNY     61  50  67 VRB5      30.27F
$$

  *****  WEATHER ACROSS SOUTH DAKOTA  *****

CITY           SKY/WX    TMP DP  RH WIND       PRES   REMARKS
SIOUX FALLS    MOSUNNY   65  49  56 VRB5      30.27F
BROOKINGS      NOT AVBL
WATERTOWN      SUNNY     64  49  57 SW10      30.23F
HURON          SUNNY     64  47  53 S12       30.21F
SISSETON         N/A     68  49  50 W15       30.19F
ABERDEEN       SUNNY     63  49  60 S10       30.19F
MITCHELL       SUNNY     65  51  60 S8        30.25S
PIERRE         MOSUNNY   67  46  47 SE14      30.13F
MOBRIDGE       SUNNY     58  48  69 MISG      30.10F
RAPID CITY     PTSUNNY   66  45  46 S16       30.06F
$$

  *****  SOME WEATHER IN NEARBY STATES *****

CITY           SKY/WX    TMP DP  RH WIND       PRES   REMARKS
GLASGOW MT     SUNNY     63  41  44 E12       29.93F
GREAT FALLS MT MOSUNNY   70  47  43 SW14      29.94R
CHEYENNE WY    PTSUNNY   61  52  72 SW5       30.21F
SCOTTSBLUFF NE CLOUDY    63  48  58 SE9       30.14F
OMAHA NE       MOSUNNY   64  50  60 S8        30.32S
DES MOINES IA  MOSUNNY   64  53  67 CALM      30.32F
DAVENPORT IA   SUNNY     60  41  49 CALM      30.33S
CHICAGO IL     MOSUNNY   54  42  64 CALM      30.29S
EAU CLAIRE WI  SUNNY     60  51  72 W10       30.26R
LA CROSSE WI   SUNNY     60  51  72 S7        30.28S
$$

  *****  SOME NATIONAL WEATHER *****

CITY           SKY/WX    TMP DP  RH WIND       PRES   REMARKS
LA GUARDIA NY  PTSUNNY   68  51  54 NW18      29.88R
RALEIGH NC     MOSUNNY   73  50  44 N8        30.06F
ATLANTA GA     PTSUNNY   73  55  53 N8        30.08S
NEW ORLEANS LA MOSUNNY   87  69  54 N7        30.05R HX  91
OKLAHOMA CITY  MOSUNNY   73  49  42 E12       30.30R
ALBUQUERQUE NM PTSUNNY   70  57  63 S5        30.33R
SALT LAKE CITY MOSUNNY   66  54  65 S5        30.17R
LOS ANGELES CA MOSUNNY   70  63  78 SW3       29.99R
BOISE ID       MOSUNNY   65  56  72 SE5       30.06R
SEATTLE WA     CLOUDY    61  57  87 CALM      30.01R
$$

*** WEATHER ACROSS MANITOBA...SASKATCHEWAN AND ONTARIO ***
                ***ONTARIO***

CITY           SKY/WX    TMP DP  RH WIND       PRES   REMARKS
GERALDTON      PTSUNNY   54  50  87 W8        29.96
THUNDER BAY    SUNNY     66  52  59 W13       30.06F
SIOUX LOOKOUT  MOSUNNY   63  50  63 W8        30.01S
TORONTO        PTSUNNY   54  39  58 NW17      30.07
BIG TROUT LK   CLOUDY    52  50  93 W8        29.81R
PICKLE LAKE    MOSUNNY   63  48  59 W12       29.89F
DRYDEN         SUNNY     63  50  63 SW14G20   30.04S
KENORA         SUNNY     63  50  63 SW13      30.07
$$
                *** MANITOBA***

CITY           SKY/WX    TMP DP  RH WIND       PRES   REMARKS
BRANDON        SUNNY     63  46  55 W10       30.06
DAUPHIN        SUNNY     72  43  35 W12       30.00F
ISLAND LAKE    MOSUNNY   61  52  72 W6        29.86R
PILOT MOUND      N/A     68  46  45 SW8         N/A
THE PAS        MOSUNNY   68  48  49 W6        29.89S
THOMPSON       PTSUNNY   61  50  67 NE6       29.88R
WINNIPEG       MOSUNNY   66  50  55 W7        30.06S
LYNN LAKE      SUNNY     59  48  67 SE8       29.86S
CHURCHILL      CLOUDY    41  36  81 E14G20    30.02
GILLAM         DRIZZLE  N/A N/A N/A NE12        N/A  FOG
$$
                ***SASKATCHEWAN***

CITY           SKY/WX    TMP DP  RH WIND       PRES   REMARKS
ESTEVAN        SUNNY     64  46  52 S6        30.03S
KINDERSLEY     SUNNY     64  46  52 S9        29.84S
LLOYDMINSTER   SUNNY     61  48  63 S9        29.77R
PRINCE ALBERT  SUNNY     63  46  55 S7        29.88
REGINA         SUNNY     59  45  58 SE9       29.97F


USA.gov is the U.S. government's official web portal to all federal, state and local government web resources and services.